This is the latest recevied weather packets stored in our database for station/object XE2KK-10. If no packets are shown the sender has not sent any weather packets the latest 10 day(s).
| Time | Temp. | Humidity | Pressure | Rain* | Wind** | Luminosity | Snow |
|---|---|---|---|---|---|---|---|
| 1777658053 | 18.33° C | 91% | 1012.3 hPa | 0 mm | - | 224 W/m² | - |
| 1777657753 | 18.33° C | 91% | 1012.4 hPa | 0 mm | - | 200 W/m² | - |
| 1777657453 | 18.33° C | 92% | 1012.4 hPa | 0 mm | - | 160 W/m² | - |
| 1777657153 | 17.78° C | 93% | 1012.5 hPa | 0 mm | - | 168 W/m² | - |
| 1777656852 | 17.78° C | 93% | 1012.5 hPa | 0 mm | - | 157 W/m² | - |
| 1777656552 | 17.78° C | 94% | 1012.7 hPa | 0 mm | - | 161 W/m² | - |
| 1777656253 | 17.78° C | 94% | 1012.7 hPa | 0 mm | - | 208 W/m² | - |
| 1777655953 | 17.78° C | 94% | 1012.8 hPa | 0 mm | - | 178 W/m² | - |
| 1777655653 | 17.78° C | 95% | 1012.8 hPa | 0 mm | - | 216 W/m² | - |
| 1777655353 | 17.78° C | 95% | 1012.9 hPa | 0 mm | - | 151 W/m² | - |
| 1777655052 | 17.78° C | 94% | 1013 hPa | 0 mm | - | 100 W/m² | - |
| 1777654752 | 17.78° C | 95% | 1013.1 hPa | 0 mm | - | 103 W/m² | - |
| 1777654453 | 17.78° C | 95% | 1012.8 hPa | 0 mm | - | 119 W/m² | - |
| 1777654153 | 17.78° C | 95% | 1012.9 hPa | 0 mm | - | 124 W/m² | - |
| 1777653853 | 17.78° C | 95% | 1013.2 hPa | 0 mm | - | 117 W/m² | - |
| 1777653553 | 17.22° C | 95% | 1013 hPa | 0 mm | - | 104 W/m² | - |
| 1777653252 | 17.78° C | 95% | 1013.1 hPa | 0 mm | - | 108 W/m² | - |
| 1777652952 | 17.78° C | 95% | 1013.1 hPa | 0 mm | - | 94 W/m² | - |
| 1777652653 | 17.78° C | 95% | 1013.2 hPa | 0 mm | - | 74 W/m² | - |
| 1777652353 | 17.78° C | 95% | 1013.2 hPa | 0 mm | - | 59 W/m² | - |
| 1777652053 | 17.78° C | 95% | 1013.3 hPa | 0 mm | - | 49 W/m² | - |
| 1777651753 | 17.78° C | 95% | 1013.1 hPa | 0 mm | - | 48 W/m² | - |
| 1777651452 | 17.78° C | 95% | 1013.5 hPa | 0 mm | - | 42 W/m² | - |
| 1777651152 | 17.78° C | 96% | 1013.1 hPa | 0 mm | - | 47 W/m² | - |
| 1777650853 | 17.78° C | 96% | 1013.1 hPa | 0 mm | - | 58 W/m² | - |
* Rain latest hour (hover to see other rain measurements)
** Current wind speed in m/s (hover to see current wind gust speed)